STARLINK-35070

Last updated on Mon Oct 20 2025 00:02:06 GMT+0000 (Coordinated Universal Time)

1 65680U 25212E 25292.29791337 .00150291 00000+0 26534-2 0 9997 2 65680 53.1583 282.5797 0002205 92.6692 267.4570 15.49364140 5592
UTC large
Height (km)
Speed (km/s)
/
Latitude / Longitude
Inclination (degrees)
Orbital Period (minutes)
Azimuth
Elevation
Range (km)
Doppler Factor

Next 0 passes for location: London (51.5072 / 0.1276)

Sorry there are no passes over London.